Location: Peterborough
(44.3091°N, 78.3197°W)
Time: 05:16:39
(UTC-04:00)

Vanguard 2 - Visible Passes

Search period start: 02 April 2023 00:00
Search period end: 12 April 2023 00:00
Orbit: 552 x 2927 km, 32.9° (Epoch: 01 April)

Date Brightness Start Highest point End Pass type
(mag) Time Alt. Az. Time Alt. Az. Time Alt. Az.
02 Apr 11.1 02:29:23 24° SE 02:29:52 24° SE 02:42:15 10° E visible
02 Apr 10.7 04:30:38 27° SSW 04:39:50 46° SSE 04:55:24 10° E visible
03 Apr 10.9 02:44:18 30° SSE 02:45:31 30° SE 02:59:23 10° E visible
03 Apr 10.6 04:45:33 26° SW 04:55:51 50° SSE 05:11:45 10° E visible
04 Apr 11.6 00:57:57 10° ESE 00:57:57 10° ESE 00:58:14 10° ESE visible
04 Apr 10.7 02:59:11 34° SSE 03:01:14 35° SSE 03:16:11 10° E visible
04 Apr 10.6 05:00:25 23° SW 05:11:57 53° S 05:28:02 10° E visible
05 Apr 11.4 01:12:47 15° ESE 01:12:47 15° ESE 01:17:25 10° E visible
05 Apr 10.5 03:14:01 38° S 03:17:01 41° SSE 03:32:45 10° E visible
05 Apr 10.6 05:15:15 20° WSW 05:28:03 56° S 05:44:14 10° ESE visible
06 Apr 11.2 01:27:36 21° ESE 01:27:36 21° ESE 01:35:09 10° E visible
06 Apr 10.4 03:28:50 40° S 03:32:53 46° SSE 03:49:11 10° E visible
06 Apr 10.6 05:30:04 16° WSW 05:44:11 56° S 06:00:22 10° ESE visible
07 Apr 10.9 01:42:23 27° SE 01:42:23 27° SE 01:52:16 10° E visible
07 Apr 10.3 03:43:36 40° SSW 03:48:51 50° SSE 04:05:30 10° E visible
07 Apr 10.6 05:44:51 12° WSW 06:00:19 56° S 06:16:25 10° ESE visible
08 Apr 10.7 01:57:09 33° SE 01:57:09 33° SE 02:09:02 10° E visible
08 Apr 10.3 03:58:23 38° SW 04:04:52 53° SSE 04:21:46 10° E visible
08 Apr 10.6 06:00:15 10° W 06:16:25 54° S 06:32:22 10° ESE visible
09 Apr 10.5 02:11:55 39° SE 02:11:55 39° SE 02:25:35 10° E visible
09 Apr 10.3 04:13:08 34° SW 04:20:56 55° S 04:37:57 10° ESE visible
10 Apr 11.4 00:25:27 13° ESE 00:25:27 13° ESE 00:27:20 10° E visible
10 Apr 10.2 02:26:40 44° SSE 02:26:40 44° SSE 02:41:59 10° E visible
10 Apr 10.4 04:27:54 29° WSW 04:37:01 56° S 04:54:04 10° ESE visible
11 Apr 11.2 00:40:13 18° ESE 00:40:13 18° ESE 00:44:28 10° E visible
11 Apr 10.1 02:41:26 48° S 02:42:06 48° SSE 02:58:18 10° E visible
11 Apr 10.4 04:42:40 24° WSW 04:53:06 55° S 05:10:05 10° ESE visible
